Year,Month,Day,Hour,Minute,Value (Times are PST for temperature in C)
2014,11,22,00,00,8.20
2014,11,22,00,01,8.20
2014,11,22,00,02,8.20
2014,11,22,00,03,8.20
2014,11,22,00,04,8.20
2014,11,22,00,05,8.20
2014,11,22,00,06,8.20
2014,11,22,00,07,8.20
2014,11,22,00,08,8.20
2014,11,22,00,09,8.20
2014,11,22,00,10,8.20
2014,11,22,00,11,8.20
2014,11,22,00,12,8.10
2014,11,22,00,13,8.10
2014,11,22,00,14,8.10
2014,11,22,00,15,8.10
2014,11,22,00,16,8.10
2014,11,22,00,17,8.10
2014,11,22,00,18,8.10
2014,11,22,00,19,8.10
2014,11,22,00,20,8.10
2014,11,22,00,21,8.10
2014,11,22,00,22,8.00
2014,11,22,00,23,8.00
2014,11,22,00,24,7.90
2014,11,22,00,25,7.90
2014,11,22,00,26,7.90
2014,11,22,00,27,7.90
2014,11,22,00,28,7.80
2014,11,22,00,29,7.80
2014,11,22,00,30,7.80
2014,11,22,00,31,7.80
2014,11,22,00,32,7.80
2014,11,22,00,33,7.90
2014,11,22,00,34,7.90
2014,11,22,00,35,7.90
2014,11,22,00,36,7.90
2014,11,22,00,37,8.00
2014,11,22,00,38,8.00
2014,11,22,00,39,8.00
2014,11,22,00,40,8.00
2014,11,22,00,41,8.00
2014,11,22,00,42,7.90
2014,11,22,00,43,7.90
2014,11,22,00,44,7.90
2014,11,22,00,45,7.80
2014,11,22,00,46,7.80
2014,11,22,00,47,7.80
2014,11,22,00,48,7.80
2014,11,22,00,49,7.70
2014,11,22,00,50,7.70
2014,11,22,00,51,7.70
2014,11,22,00,52,7.70
2014,11,22,00,53,7.70
2014,11,22,00,54,7.70
2014,11,22,00,55,7.70
2014,11,22,00,56,7.70
2014,11,22,00,57,7.80
2014,11,22,00,58,7.80
2014,11,22,00,59,7.80
2014,11,22,01,00,7.80
2014,11,22,01,01,7.80
2014,11,22,01,02,7.80
2014,11,22,01,03,7.80
2014,11,22,01,04,7.80
2014,11,22,01,05,7.80
2014,11,22,01,06,7.80
2014,11,22,01,07,7.80
2014,11,22,01,08,7.80
2014,11,22,01,09,7.80
2014,11,22,01,10,7.80
2014,11,22,01,11,7.80
2014,11,22,01,12,7.80
2014,11,22,01,13,7.80
2014,11,22,01,14,7.80
2014,11,22,01,15,7.80
2014,11,22,01,16,7.80
2014,11,22,01,17,7.80
2014,11,22,01,18,7.80
2014,11,22,01,19,7.80
2014,11,22,01,20,7.80
2014,11,22,01,21,7.80
2014,11,22,01,22,7.80
2014,11,22,01,23,7.90
2014,11,22,01,24,7.90
2014,11,22,01,25,7.90
2014,11,22,01,26,7.90
2014,11,22,01,27,8.00
2014,11,22,01,28,8.00
2014,11,22,01,29,8.00
2014,11,22,01,30,8.00
2014,11,22,01,31,8.00
2014,11,22,01,32,8.00
2014,11,22,01,33,8.00
2014,11,22,01,34,8.10
2014,11,22,01,35,8.10
2014,11,22,01,36,8.00
2014,11,22,01,37,8.00
2014,11,22,01,38,8.00
2014,11,22,01,39,8.00
2014,11,22,01,40,8.00
2014,11,22,01,41,8.00
2014,11,22,01,42,8.00
2014,11,22,01,43,8.00
2014,11,22,01,44,8.00
2014,11,22,01,45,7.90
2014,11,22,01,46,7.90
2014,11,22,01,47,7.90
2014,11,22,01,48,7.90
2014,11,22,01,49,7.90
2014,11,22,01,50,7.80
2014,11,22,01,51,7.80
2014,11,22,01,52,7.80
2014,11,22,01,53,7.80
2014,11,22,01,54,7.80
2014,11,22,01,55,7.80
2014,11,22,01,56,7.80
2014,11,22,01,57,7.80
2014,11,22,01,58,7.80
2014,11,22,01,59,7.80
2014,11,22,02,00,7.80
2014,11,22,02,01,7.80
2014,11,22,02,02,7.80
2014,11,22,02,03,7.80
2014,11,22,02,04,7.80
2014,11,22,02,05,7.80
2014,11,22,02,06,7.80
2014,11,22,02,07,7.80
2014,11,22,02,08,7.80
2014,11,22,02,09,7.70
2014,11,22,02,10,7.70
2014,11,22,02,11,7.70
2014,11,22,02,12,7.70
2014,11,22,02,13,7.80
2014,11,22,02,14,7.80
2014,11,22,02,15,7.80
2014,11,22,02,16,7.80
2014,11,22,02,17,7.80
2014,11,22,02,18,7.90
2014,11,22,02,19,7.90
2014,11,22,02,20,7.90
2014,11,22,02,21,7.90
2014,11,22,02,22,7.80
2014,11,22,02,23,7.80
2014,11,22,02,24,7.80
2014,11,22,02,25,7.80
2014,11,22,02,26,7.80
2014,11,22,02,27,7.80
2014,11,22,02,28,7.80
2014,11,22,02,29,7.80
2014,11,22,02,30,7.80
2014,11,22,02,31,7.80
2014,11,22,02,32,7.80
2014,11,22,02,33,7.90
2014,11,22,02,34,7.90
2014,11,22,02,35,7.90
2014,11,22,02,36,7.90
2014,11,22,02,37,7.90
2014,11,22,02,38,7.90
2014,11,22,02,39,7.90
2014,11,22,02,40,7.90
2014,11,22,02,41,7.90
2014,11,22,02,42,7.90
2014,11,22,02,43,7.90
2014,11,22,02,44,7.90
2014,11,22,02,45,7.90
2014,11,22,02,46,7.90
2014,11,22,02,47,7.90
2014,11,22,02,48,7.90
2014,11,22,02,49,7.90
2014,11,22,02,50,7.90
2014,11,22,02,51,7.90
2014,11,22,02,52,7.90
2014,11,22,02,53,7.90
2014,11,22,02,54,7.90
2014,11,22,02,55,7.90
2014,11,22,02,56,7.90
2014,11,22,02,57,7.90
2014,11,22,02,58,7.90
2014,11,22,02,59,7.90
2014,11,22,03,00,7.90
2014,11,22,03,01,7.80
2014,11,22,03,02,7.80
2014,11,22,03,03,7.80
2014,11,22,03,04,7.80
2014,11,22,03,05,7.80
2014,11,22,03,06,7.70
2014,11,22,03,07,7.70
2014,11,22,03,08,7.60
2014,11,22,03,09,7.60
2014,11,22,03,10,7.50
2014,11,22,03,11,7.40
2014,11,22,03,12,7.40
2014,11,22,03,13,7.30
2014,11,22,03,14,7.30
2014,11,22,03,15,7.30
2014,11,22,03,16,7.20
2014,11,22,03,17,7.10
2014,11,22,03,18,7.10
2014,11,22,03,19,7.00
2014,11,22,03,20,7.00
2014,11,22,03,21,7.00
2014,11,22,03,22,6.90
2014,11,22,03,23,6.90
2014,11,22,03,24,6.90
2014,11,22,03,25,6.80
2014,11,22,03,26,6.80
2014,11,22,03,27,6.80
2014,11,22,03,28,6.80
2014,11,22,03,29,6.80
2014,11,22,03,30,6.80
2014,11,22,03,31,6.80
2014,11,22,03,32,6.80
2014,11,22,03,33,6.70
2014,11,22,03,34,6.70
2014,11,22,03,35,6.70
2014,11,22,03,36,6.70
2014,11,22,03,37,6.70
2014,11,22,03,38,6.70
2014,11,22,03,39,6.70
2014,11,22,03,40,6.70
2014,11,22,03,41,6.70
2014,11,22,03,42,6.60
2014,11,22,03,43,6.60
2014,11,22,03,44,6.60
2014,11,22,03,45,6.60
2014,11,22,03,46,6.60
2014,11,22,03,47,6.60
2014,11,22,03,48,6.60
2014,11,22,03,49,6.60
2014,11,22,03,50,6.60
2014,11,22,03,51,6.60
2014,11,22,03,52,6.60
2014,11,22,03,53,6.60
2014,11,22,03,54,6.60
2014,11,22,03,55,6.60
2014,11,22,03,56,6.60
2014,11,22,03,57,6.50
2014,11,22,03,58,6.40
2014,11,22,03,59,6.40
2014,11,22,04,00,6.40
2014,11,22,04,01,6.40
2014,11,22,04,02,6.40
2014,11,22,04,03,6.40
2014,11,22,04,04,6.40
2014,11,22,04,05,6.40
2014,11,22,04,06,6.40
2014,11,22,04,07,6.40
2014,11,22,04,08,6.40
2014,11,22,04,09,6.30
2014,11,22,04,10,6.30
2014,11,22,04,11,6.30
2014,11,22,04,12,6.30
2014,11,22,04,13,6.20
2014,11,22,04,14,6.20
2014,11,22,04,15,6.20
2014,11,22,04,16,6.20
2014,11,22,04,17,6.20
2014,11,22,04,18,6.20
2014,11,22,04,19,6.20
2014,11,22,04,20,6.10
2014,11,22,04,21,6.10
2014,11,22,04,22,6.10
2014,11,22,04,23,6.00
2014,11,22,04,24,6.00
2014,11,22,04,25,6.00
2014,11,22,04,26,5.90
2014,11,22,04,27,5.90
2014,11,22,04,28,5.90
2014,11,22,04,29,5.80
2014,11,22,04,30,5.80
2014,11,22,04,31,5.80
2014,11,22,04,32,5.70
2014,11,22,04,33,5.70
2014,11,22,04,34,5.70
2014,11,22,04,35,5.70
2014,11,22,04,36,5.60
2014,11,22,04,37,5.60
2014,11,22,04,38,5.60
2014,11,22,04,39,5.50
2014,11,22,04,40,5.50
2014,11,22,04,41,5.50
2014,11,22,04,42,5.50
2014,11,22,04,43,5.50
2014,11,22,04,44,5.50
2014,11,22,04,45,5.40
2014,11,22,04,46,5.40
2014,11,22,04,47,5.40
2014,11,22,04,48,5.40
2014,11,22,04,49,5.40
2014,11,22,04,50,5.40
2014,11,22,04,51,5.40
2014,11,22,04,52,5.40
2014,11,22,04,53,5.40
2014,11,22,04,54,5.40
2014,11,22,04,55,5.40
2014,11,22,04,56,5.40
2014,11,22,04,57,5.40
2014,11,22,04,58,5.40
2014,11,22,04,59,5.40
2014,11,22,05,00,5.40
2014,11,22,08,58,5.50
2014,11,22,08,59,5.50
2014,11,22,09,00,5.60
2014,11,22,09,01,5.60
2014,11,22,09,02,5.60
2014,11,22,09,03,5.70
2014,11,22,09,04,5.70
2014,11,22,09,05,5.70
2014,11,22,09,06,5.80
2014,11,22,09,07,5.80
2014,11,22,09,08,5.90
2014,11,22,09,09,5.90
2014,11,22,09,10,5.90
2014,11,22,09,11,5.90
2014,11,22,09,12,5.90
2014,11,22,09,13,6.00
2014,11,22,09,14,6.00
2014,11,22,09,15,6.00
2014,11,22,09,16,6.00
2014,11,22,09,17,6.10
2014,11,22,09,18,6.10
2014,11,22,09,19,6.00
2014,11,22,09,20,6.00
2014,11,22,09,21,6.10
2014,11,22,09,22,6.10
2014,11,22,09,23,6.10
2014,11,22,09,24,6.10
2014,11,22,09,25,6.10
2014,11,22,09,26,6.10
2014,11,22,09,27,6.10
2014,11,22,09,28,6.10
2014,11,22,09,29,6.10
2014,11,22,09,30,6.20
2014,11,22,09,31,6.20
2014,11,22,09,32,6.20
2014,11,22,09,33,6.20
2014,11,22,09,34,6.20
2014,11,22,09,35,6.20
2014,11,22,09,36,6.30
2014,11,22,09,37,6.30
2014,11,22,09,38,6.30
2014,11,22,09,39,6.40
2014,11,22,09,40,6.40
2014,11,22,09,41,6.40
2014,11,22,09,42,6.40
2014,11,22,09,43,6.40
2014,11,22,09,44,6.40
2014,11,22,09,45,6.50
2014,11,22,09,46,6.60
2014,11,22,09,47,6.60
2014,11,22,09,48,6.60
2014,11,22,09,49,6.60
2014,11,22,09,50,6.60
2014,11,22,09,51,6.70
2014,11,22,09,52,6.70
2014,11,22,09,53,6.70
2014,11,22,09,54,6.70
2014,11,22,09,55,6.80
2014,11,22,09,56,6.80
2014,11,22,09,57,6.80
2014,11,22,09,58,6.80
2014,11,22,09,59,6.80
2014,11,22,10,00,6.80
2014,11,22,10,01,6.80
2014,11,22,10,02,6.90
2014,11,22,10,03,6.90
2014,11,22,10,04,6.90
2014,11,22,10,05,6.90
2014,11,22,10,06,7.00
2014,11,22,10,07,7.00
2014,11,22,10,08,7.00
2014,11,22,10,09,7.10
2014,11,22,10,10,7.10
2014,11,22,10,11,7.10
2014,11,22,10,12,7.20
2014,11,22,10,13,7.20
2014,11,22,10,14,7.20
2014,11,22,10,15,7.20
2014,11,22,10,16,7.30
2014,11,22,10,17,7.30
2014,11,22,10,18,7.30
2014,11,22,10,19,7.30
2014,11,22,10,20,7.30
2014,11,22,10,21,7.30
2014,11,22,10,22,7.30
2014,11,22,10,23,7.30
2014,11,22,10,24,7.30
2014,11,22,10,25,7.30
2014,11,22,10,26,7.30
2014,11,22,10,27,7.40
2014,11,22,10,28,7.40
2014,11,22,10,29,7.40
2014,11,22,10,30,7.40
2014,11,22,10,31,7.40
2014,11,22,10,32,7.40
2014,11,22,10,33,7.50
2014,11,22,10,34,7.50
2014,11,22,10,35,7.50
2014,11,22,10,36,7.50
2014,11,22,10,37,7.50
2014,11,22,10,38,7.50
2014,11,22,10,39,7.50
2014,11,22,10,40,7.60
2014,11,22,10,41,7.60
2014,11,22,10,42,7.60
2014,11,22,10,43,7.60
2014,11,22,10,44,7.60
2014,11,22,10,45,7.60
2014,11,22,10,46,7.60
2014,11,22,10,47,7.60
2014,11,22,10,48,7.60
2014,11,22,10,49,7.60
2014,11,22,10,50,7.60
2014,11,22,10,51,7.60
2014,11,22,10,52,7.50
2014,11,22,10,53,7.50
2014,11,22,10,54,7.40
2014,11,22,10,55,7.40
2014,11,22,10,56,7.40
2014,11,22,10,57,7.40
2014,11,22,10,58,7.40
2014,11,22,10,59,7.30
2014,11,22,11,00,7.30
2014,11,22,11,01,7.30
2014,11,22,11,02,7.40
2014,11,22,11,03,7.40
2014,11,22,11,04,7.50
2014,11,22,11,05,7.60
2014,11,22,11,06,7.60
2014,11,22,11,07,7.70
2014,11,22,11,08,7.70
2014,11,22,11,09,7.80
2014,11,22,11,10,7.80
2014,11,22,11,11,7.90
2014,11,22,11,12,7.90
2014,11,22,11,13,7.90
2014,11,22,11,14,8.00
2014,11,22,11,15,8.00
2014,11,22,11,16,8.10
2014,11,22,11,17,8.10
2014,11,22,11,18,8.10
2014,11,22,11,19,8.20
2014,11,22,11,20,8.20
2014,11,22,11,21,8.20
2014,11,22,11,22,8.30
2014,11,22,11,23,8.30
2014,11,22,11,24,8.30
2014,11,22,11,25,8.30
2014,11,22,11,26,8.40
2014,11,22,11,27,8.40
2014,11,22,11,28,8.50
2014,11,22,11,29,8.50
2014,11,22,11,30,8.50
2014,11,22,11,31,8.50
2014,11,22,11,32,8.60
2014,11,22,11,33,8.70
2014,11,22,11,34,8.70
2014,11,22,11,35,8.70
2014,11,22,11,36,8.80
2014,11,22,11,37,8.80
2014,11,22,11,38,8.80
2014,11,22,11,39,8.90
2014,11,22,11,40,8.90
2014,11,22,11,41,9.00
2014,11,22,11,42,9.10
2014,11,22,11,43,9.10
2014,11,22,11,44,9.20
2014,11,22,11,45,9.20
2014,11,22,11,46,9.20
2014,11,22,11,47,9.40
2014,11,22,11,48,9.40
2014,11,22,11,49,9.50
2014,11,22,11,50,9.50
2014,11,22,11,51,9.50
2014,11,22,11,52,9.60
2014,11,22,11,53,9.60
2014,11,22,11,54,9.70
2014,11,22,11,55,9.70
2014,11,22,11,56,9.70
2014,11,22,11,57,9.70
2014,11,22,11,58,9.80
2014,11,22,11,59,9.80
2014,11,22,12,00,9.80
2014,11,22,12,01,9.80
2014,11,22,12,02,9.80
2014,11,22,12,03,9.80
2014,11,22,12,04,9.80
2014,11,22,12,05,9.80
2014,11,22,12,06,9.80
2014,11,22,12,07,9.80
2014,11,22,12,08,9.90
2014,11,22,12,09,9.90
2014,11,22,12,10,9.90
2014,11,22,12,11,9.90
2014,11,22,12,12,9.90
2014,11,22,12,13,9.90
2014,11,22,12,14,9.90
2014,11,22,12,15,9.90
2014,11,22,12,16,9.90
2014,11,22,12,17,9.90
2014,11,22,12,18,9.90
2014,11,22,12,19,10.00
2014,11,22,12,20,10.10
2014,11,22,12,21,10.10
2014,11,22,12,22,10.10
2014,11,22,12,23,10.10
2014,11,22,12,24,10.20
2014,11,22,12,25,10.20
2014,11,22,12,26,10.30
2014,11,22,12,27,10.30
2014,11,22,12,28,10.30
2014,11,22,12,29,10.30
2014,11,22,12,30,10.40
2014,11,22,12,31,10.40
2014,11,22,12,32,10.40
2014,11,22,12,33,10.40
2014,11,22,12,34,10.40
2014,11,22,12,35,10.40
2014,11,22,12,36,10.50
2014,11,22,12,37,10.60
2014,11,22,12,38,10.70
2014,11,22,12,39,10.70
2014,11,22,12,40,10.80
2014,11,22,12,41,10.90
2014,11,22,12,42,10.90
2014,11,22,12,43,10.90
2014,11,22,12,44,10.90
2014,11,22,12,45,10.90
2014,11,22,12,46,10.90
2014,11,22,12,47,10.90
2014,11,22,12,48,10.90
2014,11,22,12,49,11.00
2014,11,22,12,50,11.10
2014,11,22,12,51,11.10
2014,11,22,12,52,11.10
2014,11,22,12,53,11.10
2014,11,22,12,54,11.10
2014,11,22,12,55,11.10
2014,11,22,12,56,11.10
2014,11,22,12,57,11.10
2014,11,22,12,58,11.10
2014,11,22,12,59,11.20
2014,11,22,13,00,11.30
2014,11,22,13,01,11.30
2014,11,22,13,02,11.40
2014,11,22,13,03,11.40
2014,11,22,13,04,11.40
2014,11,22,13,05,11.40
2014,11,22,13,06,11.40
2014,11,22,13,07,11.40
2014,11,22,13,08,11.40
2014,11,22,13,09,11.50
2014,11,22,13,10,11.40
2014,11,22,13,11,11.40
2014,11,22,13,12,11.40
2014,11,22,13,13,11.40
2014,11,22,13,14,11.40
2014,11,22,13,15,11.40
2014,11,22,13,16,11.40
2014,11,22,13,17,11.40
2014,11,22,13,18,11.50
2014,11,22,13,19,11.50
2014,11,22,13,20,11.60
2014,11,22,13,21,11.60
2014,11,22,13,22,11.60
2014,11,22,13,23,11.60
2014,11,22,13,24,11.60
2014,11,22,13,25,11.60
2014,11,22,13,26,11.50
2014,11,22,13,27,11.40
2014,11,22,13,28,11.30
2014,11,22,13,29,11.20
2014,11,22,13,30,11.20
2014,11,22,13,31,11.10
2014,11,22,13,32,11.10
2014,11,22,13,33,11.00
2014,11,22,13,34,10.90
2014,11,22,13,35,10.90
2014,11,22,13,36,10.90
2014,11,22,13,37,10.80
2014,11,22,13,38,10.80
2014,11,22,13,39,10.80
2014,11,22,13,40,10.80
2014,11,22,13,41,10.80
2014,11,22,13,42,10.80
2014,11,22,13,43,10.80
2014,11,22,13,44,10.80
2014,11,22,13,45,10.80
2014,11,22,13,46,10.70
2014,11,22,13,47,10.70
2014,11,22,13,48,10.60
2014,11,22,13,49,10.60
2014,11,22,13,50,10.60
2014,11,22,13,51,10.60
2014,11,22,13,52,10.60
2014,11,22,13,53,10.60
2014,11,22,13,54,10.60
2014,11,22,13,55,10.60
2014,11,22,13,56,10.60
2014,11,22,13,57,10.60
2014,11,22,13,58,10.60
2014,11,22,13,59,10.40
2014,11,22,14,00,10.40
2014,11,22,14,01,10.40
2014,11,22,14,02,10.40
2014,11,22,14,03,10.40
2014,11,22,14,04,10.30
2014,11,22,14,05,10.30
2014,11,22,14,06,10.30
2014,11,22,14,07,10.30
2014,11,22,14,08,10.30
2014,11,22,14,09,10.30
2014,11,22,14,10,10.30
2014,11,22,14,11,10.30
2014,11,22,14,12,10.30
2014,11,22,14,13,10.30
2014,11,22,14,14,10.30
2014,11,22,14,15,10.30
2014,11,22,14,16,10.30
2014,11,22,14,17,10.30
2014,11,22,14,18,10.30
2014,11,22,14,19,10.30
2014,11,22,14,20,10.30
2014,11,22,14,21,10.40
2014,11,22,14,22,10.40
2014,11,22,14,23,10.40
2014,11,22,14,24,10.40
2014,11,22,14,25,10.40
2014,11,22,14,26,10.40
2014,11,22,14,27,10.40
2014,11,22,14,28,10.60
2014,11,22,14,29,10.60
2014,11,22,14,30,10.60
2014,11,22,14,31,10.70
2014,11,22,14,32,10.80
2014,11,22,14,33,10.80
2014,11,22,14,34,10.80
2014,11,22,14,35,10.80
2014,11,22,14,36,10.80
2014,11,22,14,37,10.90
2014,11,22,14,38,10.90
2014,11,22,14,39,11.10
2014,11,22,14,40,11.10
2014,11,22,14,41,11.20
2014,11,22,14,42,11.30
2014,11,22,14,43,11.30
2014,11,22,14,44,11.30
2014,11,22,14,45,11.40
2014,11,22,14,46,11.40
2014,11,22,14,47,11.50
2014,11,22,14,48,11.60
2014,11,22,14,49,11.60
2014,11,22,14,50,11.60
2014,11,22,14,51,11.60
2014,11,22,14,52,11.60
2014,11,22,14,53,11.60
2014,11,22,14,54,11.70
2014,11,22,14,55,11.70
2014,11,22,14,56,11.70
2014,11,22,14,57,11.70
2014,11,22,14,58,11.70
2014,11,22,14,59,11.70
2014,11,22,15,00,11.60
2014,11,22,15,01,11.60
2014,11,22,15,02,11.60
2014,11,22,15,03,11.50
2014,11,22,15,04,11.40
2014,11,22,15,05,11.40
2014,11,22,15,06,11.40
2014,11,22,15,07,11.40
2014,11,22,15,08,11.40
2014,11,22,15,09,11.30
2014,11,22,15,10,11.30
2014,11,22,15,11,11.20
2014,11,22,15,12,11.10
2014,11,22,15,13,11.00
2014,11,22,15,14,10.90
2014,11,22,15,15,10.80
2014,11,22,15,16,10.70
2014,11,22,15,17,10.60
2014,11,22,15,18,10.60
2014,11,22,15,19,10.50
2014,11,22,15,20,10.40
2014,11,22,15,21,10.40
2014,11,22,15,22,10.30
2014,11,22,15,23,10.30
2014,11,22,15,24,10.20
2014,11,22,15,25,10.20
2014,11,22,15,26,10.20
2014,11,22,15,27,10.20
2014,11,22,15,28,10.20
2014,11,22,15,29,10.20
2014,11,22,15,30,10.20
2014,11,22,15,31,10.20
2014,11,22,15,32,10.20
2014,11,22,15,33,10.20
2014,11,22,15,34,10.30
2014,11,22,15,35,10.20
2014,11,22,15,36,10.20
2014,11,22,15,37,10.20
2014,11,22,15,38,10.20
2014,11,22,15,39,10.10
2014,11,22,15,40,10.10
2014,11,22,15,41,10.10
2014,11,22,15,42,10.10
2014,11,22,15,43,10.10
2014,11,22,15,44,10.10
2014,11,22,15,45,10.00
2014,11,22,15,46,9.90
2014,11,22,15,47,9.90
2014,11,22,15,48,9.90
2014,11,22,15,49,9.90
2014,11,22,15,50,9.90
2014,11,22,15,51,9.90
2014,11,22,15,52,9.80
2014,11,22,15,53,9.80
2014,11,22,15,54,9.80
2014,11,22,15,55,9.70
2014,11,22,15,56,9.70
2014,11,22,15,57,9.70
2014,11,22,15,58,9.70
2014,11,22,15,59,9.70
2014,11,22,16,00,9.70
2014,11,22,16,01,9.70
2014,11,22,16,02,9.70
2014,11,22,16,03,9.70
2014,11,22,16,04,9.70
2014,11,22,16,05,9.70
2014,11,22,16,06,9.70
2014,11,22,16,07,9.60
2014,11,22,16,08,9.60
2014,11,22,16,09,9.60
2014,11,22,16,10,9.60
2014,11,22,16,11,9.60
2014,11,22,16,12,9.60
2014,11,22,16,13,9.50
2014,11,22,16,14,9.50
2014,11,22,16,15,9.50
2014,11,22,16,16,9.50
2014,11,22,16,17,9.50
2014,11,22,16,18,9.40
2014,11,22,16,19,9.40
2014,11,22,16,20,9.40
2014,11,22,16,21,9.40
2014,11,22,16,22,9.40
2014,11,22,16,23,9.40
2014,11,22,16,24,9.40
2014,11,22,16,25,9.40
2014,11,22,16,26,9.40
2014,11,22,16,27,9.40
2014,11,22,16,28,9.40
2014,11,22,16,29,9.40
2014,11,22,16,30,9.40
2014,11,22,16,31,9.40
2014,11,22,16,32,9.40
2014,11,22,16,33,9.30
2014,11,22,16,34,9.30
2014,11,22,16,35,9.30
2014,11,22,16,36,9.30
2014,11,22,16,37,9.30
2014,11,22,16,38,9.30
2014,11,22,16,39,9.30
2014,11,22,16,40,9.20
2014,11,22,16,41,9.20
2014,11,22,16,42,9.20
2014,11,22,16,43,9.20
2014,11,22,16,44,9.20
2014,11,22,16,45,9.20
2014,11,22,16,46,9.20
2014,11,22,16,47,9.20
2014,11,22,16,48,9.20
2014,11,22,16,49,9.10
2014,11,22,16,50,9.10
2014,11,22,16,51,9.10
2014,11,22,16,52,9.10
2014,11,22,16,53,9.10
2014,11,22,16,54,9.10
2014,11,22,16,55,9.10
2014,11,22,16,56,9.10
2014,11,22,16,57,9.10
2014,11,22,16,58,9.10
2014,11,22,16,59,9.10
2014,11,22,17,00,9.00
2014,11,22,17,01,9.00
2014,11,22,17,02,8.90
2014,11,22,17,03,8.90
2014,11,22,17,04,8.90
2014,11,22,17,05,8.90
2014,11,22,17,06,8.80
2014,11,22,17,07,8.80
2014,11,22,17,08,8.80
2014,11,22,17,09,8.80
2014,11,22,17,10,8.90
2014,11,22,17,11,8.90
2014,11,22,17,12,8.90
2014,11,22,17,13,8.90
2014,11,22,17,14,8.80
2014,11,22,17,15,8.80
2014,11,22,17,16,8.70
2014,11,22,17,17,8.70
2014,11,22,17,18,8.70
2014,11,22,17,19,8.60
2014,11,22,17,20,8.60
2014,11,22,17,21,8.60
2014,11,22,17,22,8.60
2014,11,22,17,23,8.50
2014,11,22,17,24,8.50
2014,11,22,17,25,8.50
2014,11,22,17,26,8.40
2014,11,22,17,27,8.40
2014,11,22,17,28,8.30
2014,11,22,17,29,8.30
2014,11,22,17,30,8.20
2014,11,22,17,31,8.20
2014,11,22,17,32,8.20
2014,11,22,17,33,8.20
2014,11,22,17,34,8.20
2014,11,22,17,35,8.10
2014,11,22,17,36,8.10
2014,11,22,17,37,8.10
2014,11,22,17,38,8.10
2014,11,22,17,39,8.00
2014,11,22,17,40,8.10
2014,11,22,17,41,8.10
2014,11,22,17,42,8.20
2014,11,22,17,43,8.20
2014,11,22,17,44,8.30
2014,11,22,17,45,8.30
2014,11,22,17,46,8.40
2014,11,22,17,47,8.40
2014,11,22,17,48,8.50
2014,11,22,17,49,8.50
2014,11,22,17,50,8.60
2014,11,22,17,51,8.60
2014,11,22,17,52,8.70
2014,11,22,17,53,8.70
2014,11,22,17,54,8.70
2014,11,22,17,55,8.70
2014,11,22,17,56,8.70
2014,11,22,17,57,8.70
2014,11,22,17,58,8.70
2014,11,22,17,59,8.70
2014,11,22,18,00,8.70
2014,11,22,18,01,8.70
2014,11,22,18,02,8.70
2014,11,22,18,03,8.70
2014,11,22,18,04,8.70
2014,11,22,18,05,8.70
2014,11,22,18,06,8.60
2014,11,22,18,07,8.60
2014,11,22,18,08,8.60
2014,11,22,18,09,8.60
2014,11,22,18,10,8.60
2014,11,22,18,11,8.50
2014,11,22,18,12,8.50
2014,11,22,18,13,8.50
2014,11,22,18,14,8.40
2014,11,22,18,15,8.40
2014,11,22,18,16,8.40
2014,11,22,18,17,8.40
2014,11,22,18,18,8.30
2014,11,22,18,19,8.30
2014,11,22,18,20,8.30
2014,11,22,18,21,8.30
2014,11,22,18,22,8.30
2014,11,22,18,23,8.20
2014,11,22,18,24,8.20
2014,11,22,18,25,8.20
2014,11,22,18,26,8.20
2014,11,22,18,27,8.20
2014,11,22,18,28,8.20
2014,11,22,18,29,8.10
2014,11,22,18,30,8.10
2014,11,22,18,31,8.00
2014,11,22,18,32,8.00
2014,11,22,18,33,7.90
2014,11,22,18,34,7.90
2014,11,22,18,35,7.90
2014,11,22,18,36,7.80
2014,11,22,18,37,7.80
2014,11,22,18,38,7.80
2014,11,22,18,39,7.80
2014,11,22,18,40,7.80
2014,11,22,18,41,7.80
2014,11,22,18,42,7.70
2014,11,22,18,43,7.70
2014,11,22,18,44,7.70
2014,11,22,18,45,7.70
2014,11,22,18,46,7.70
2014,11,22,18,47,7.70
2014,11,22,18,48,7.70
2014,11,22,18,49,7.70
2014,11,22,18,50,7.70
2014,11,22,18,51,7.70
2014,11,22,18,52,7.70
2014,11,22,18,53,7.70
2014,11,22,18,54,7.70
2014,11,22,18,55,7.70
2014,11,22,18,56,7.60
2014,11,22,18,57,7.60
2014,11,22,18,58,7.60
2014,11,22,18,59,7.60
2014,11,22,19,00,7.60
2014,11,22,19,01,7.60
2014,11,22,19,02,7.60
2014,11,22,19,03,7.60
2014,11,22,19,04,7.60
2014,11,22,19,05,7.60
2014,11,22,19,06,7.60
2014,11,22,19,07,7.60
2014,11,22,19,08,7.60
2014,11,22,19,09,7.60
2014,11,22,19,10,7.60
2014,11,22,19,11,7.60
2014,11,22,19,12,7.60
2014,11,22,19,13,7.60
2014,11,22,19,14,7.60
2014,11,22,19,15,7.60
2014,11,22,19,16,7.60
2014,11,22,19,17,7.60
2014,11,22,19,18,7.60
2014,11,22,19,19,7.60
2014,11,22,19,20,7.60
2014,11,22,19,21,7.60
2014,11,22,19,22,7.70
2014,11,22,19,23,7.70
2014,11,22,19,24,7.60
2014,11,22,19,25,7.60
2014,11,22,19,26,7.60
2014,11,22,19,27,7.60
2014,11,22,19,28,7.70
2014,11,22,19,29,7.70
2014,11,22,19,30,7.70
2014,11,22,19,31,7.70
2014,11,22,19,32,7.70
2014,11,22,19,33,7.70
2014,11,22,19,34,7.70
2014,11,22,19,35,7.70
2014,11,22,19,36,7.70
2014,11,22,19,37,7.70
2014,11,22,19,38,7.70
2014,11,22,19,39,7.70
2014,11,22,19,40,7.70
2014,11,22,19,41,7.80
2014,11,22,19,42,7.80
2014,11,22,19,43,7.80
2014,11,22,19,44,7.80
2014,11,22,19,45,7.70
2014,11,22,19,46,7.70
2014,11,22,19,47,7.70
2014,11,22,19,48,7.70
2014,11,22,19,49,7.70
2014,11,22,19,50,7.60
2014,11,22,19,51,7.60
2014,11,22,19,52,7.60
2014,11,22,19,53,7.60
2014,11,22,19,54,7.60
2014,11,22,19,55,7.60
2014,11,22,19,56,7.50
2014,11,22,19,57,7.50
2014,11,22,19,58,7.50
2014,11,22,19,59,7.50
2014,11,22,20,00,7.50
2014,11,22,20,01,7.40
2014,11,22,20,02,7.40
2014,11,22,20,03,7.40
2014,11,22,20,04,7.40
2014,11,22,20,05,7.40
2014,11,22,20,06,7.40
2014,11,22,20,07,7.40
2014,11,22,20,08,7.40
2014,11,22,20,09,7.40
2014,11,22,20,10,7.40
2014,11,22,20,11,7.50
2014,11,22,20,12,7.50
2014,11,22,20,13,7.50
2014,11,22,20,14,7.50
2014,11,22,20,15,7.50
2014,11,22,20,16,7.50
2014,11,22,20,17,7.50
2014,11,22,20,18,7.50
2014,11,22,20,19,7.50
2014,11,22,20,20,7.30
2014,11,22,20,21,7.30
2014,11,22,20,22,7.20
2014,11,22,20,23,7.10
2014,11,22,20,24,7.10
2014,11,22,20,25,7.00
2014,11,22,20,26,7.00
2014,11,22,20,27,6.90
2014,11,22,20,28,6.90
2014,11,22,20,29,6.90
2014,11,22,20,30,6.90
2014,11,22,20,31,7.00
2014,11,22,20,32,7.10
2014,11,22,20,33,7.20
2014,11,22,20,34,7.20
2014,11,22,20,35,7.30
2014,11,22,20,36,7.30
2014,11,22,20,37,7.40
2014,11,22,20,38,7.50
2014,11,22,20,39,7.50
2014,11,22,20,40,7.50
2014,11,22,20,41,7.60
2014,11,22,20,42,7.60
2014,11,22,20,43,7.60
2014,11,22,20,44,7.70
2014,11,22,20,45,7.70
2014,11,22,20,46,7.80
2014,11,22,20,47,7.80
2014,11,22,20,48,7.80
2014,11,22,20,49,7.80
2014,11,22,20,50,7.80
2014,11,22,20,51,7.80
2014,11,22,20,52,7.80
2014,11,22,20,53,7.80
2014,11,22,20,54,7.80
2014,11,22,20,55,7.80
2014,11,22,20,56,7.80
2014,11,22,20,57,7.70
2014,11,22,20,58,7.70
2014,11,22,20,59,7.70
2014,11,22,21,00,7.70
2014,11,22,21,01,7.70
2014,11,22,21,02,7.60
2014,11,22,21,03,7.60
2014,11,22,21,04,7.60
2014,11,22,21,05,7.60
2014,11,22,21,06,7.60
2014,11,22,21,07,7.60
2014,11,22,21,08,7.60
2014,11,22,21,09,7.60
2014,11,22,21,10,7.60
2014,11,22,21,11,7.60
2014,11,22,21,12,7.60
2014,11,22,21,13,7.60
2014,11,22,21,14,7.60
2014,11,22,21,15,7.60
2014,11,22,21,16,7.60
2014,11,22,21,17,7.60
2014,11,22,21,18,7.70
2014,11,22,21,19,7.70
2014,11,22,21,20,7.70
2014,11,22,21,21,7.70
2014,11,22,21,22,7.70
2014,11,22,21,23,7.70
2014,11,22,21,24,7.70
2014,11,22,21,25,7.70
2014,11,22,21,26,7.80
2014,11,22,21,27,7.80
2014,11,22,21,28,7.80
2014,11,22,21,29,7.80
2014,11,22,21,30,7.90
2014,11,22,21,31,7.90
2014,11,22,21,32,7.90
2014,11,22,21,33,7.90
2014,11,22,21,34,7.90
2014,11,22,21,35,7.90
2014,11,22,21,36,7.90
2014,11,22,21,37,7.90
2014,11,22,21,38,7.90
2014,11,22,21,39,7.90
2014,11,22,21,40,7.80
2014,11,22,21,41,7.80
2014,11,22,21,42,7.80
2014,11,22,21,43,7.80
2014,11,22,21,44,7.80
2014,11,22,21,45,7.80
2014,11,22,21,46,7.70
2014,11,22,21,47,7.70
2014,11,22,21,48,7.70
2014,11,22,21,49,7.80
2014,11,22,21,50,7.80
2014,11,22,21,51,7.80
2014,11,22,21,52,7.80
2014,11,22,21,53,7.80
2014,11,22,21,54,7.80